x

Gooses Reef, Md (44062) Weather Station

7:20pm - Tue 16th Sep 2014 All times are EDT. -4 hours from GMT.

  • Wind
    13mph, 18mph gusts
  • Air Temp 73°f
  • Sea Pressure 1015.6mb
  • Gooses Reef, Md
  • Gooses Reef, Md

More Historic Weather Station data

Upgrade to MSW Pro to gain access to the past 30 days of data for over 8000 Wavebouys and Weather Stations around the globe.

Join Pro

Comparision Forecast

View Surf forecast
   
Tue 09/16 7:20pm  -   -  13 18 mph 1015.6mb - 73f
7:10pm  -   -  13 18 mph 1015.5mb - 73f
7:00pm 1ft 2s 13 18 mph 1015.6mb 75f 73f
6:50pm  -   -  13 16 mph 1015.6mb - 74f
6:40pm  -   -  11 16 mph 1015.6mb - 74f
6:30pm  -   -  11 16 mph 1015.7mb - 74f
6:20pm  -   -  11 18 mph 1015.7mb - 74f
6:10pm  -   -  13 16 mph 1015.7mb - 74f
6:00pm 1ft 2s 11 16 mph 1015.6mb 75f 75f
5:50pm  -   -  9 11 mph 1015.7mb - 75f
5:40pm  -   -  11 13 mph 1015.6mb - 75f
5:30pm  -   -  11 13 mph 1015.6mb - 74f
5:20pm  -   -  11 16 mph 1015.6mb - 75f
5:10pm  -   -  11 13 mph 1015.6mb - 74f
5:00pm 1ft 2s 11 16 mph 1015.5mb 76f 74f
4:50pm  -   -  11 13 mph 1015.6mb - 74f
4:40pm  -   -  11 16 mph 1015.6mb - 74f
4:30pm  -   -  9 13 mph 1015.6mb - 74f
4:20pm  -   -  9 13 mph 1015.7mb - 74f
4:10pm  -   -  9 11 mph 1015.8mb - 73f
4:00pm 1ft 2s 9 11 mph 1015.8mb 76f 73f
3:50pm  -   -  9 11 mph 1015.7mb - 73f
3:40pm  -   -  9 11 mph 1015.7mb - 73f
3:30pm  -   -  9 13 mph 1015.8mb - 73f
3:20pm  -   -  11 16 mph 1015.7mb - 73f
3:10pm  -   -  11 16 mph 1015.8mb - 73f
3:00pm 1.3ft 2s 11 16 mph 1015.8mb 75f 73f
2:50pm  -   -  13 18 mph 1015.9mb - 73f
2:40pm  -   -  13 16 mph 1015.9mb - 73f
2:30pm  -   -  13 18 mph 1015.9mb - 73f
2:20pm  -   -  16 18 mph 1015.9mb - 73f
2:10pm  -   -  13 18 mph 1016mb - 73f
2:00pm 1.6ft 3s 13 18 mph 1016mb 75f 73f
1:50pm  -   -  13 18 mph 1016.2mb - 73f
1:40pm  -   -  11 16 mph 1016.2mb - 73f
1:30pm  -   -  13 16 mph 1016.2mb - 73f
1:20pm  -   -  13 18 mph 1016.2mb - 73f
1:10pm  -   -  11 16 mph 1016.3mb - 73f
1:00pm 1.6ft 2s 13 18 mph 1016.4mb 75f 73f
12:50pm  -   -  11 18 mph 1016.3mb - 73f
12:40pm  -   -  13 18 mph 1016.4mb - 73f
12:30pm  -   -  13 16 mph 1016.4mb - 73f
12:20pm  -   -  13 18 mph 1016.5mb - 73f
12:10pm  -   -  13 18 mph 1016.6mb - 73f
12:00pm 1.3ft 2s 16 18 mph 1016.6mb 75f 72f
11:50am  -   -  13 18 mph 1016.6mb - 73f
11:40am  -   -  16 20 mph 1016.5mb - 73f
11:30am  -   -  13 22 mph 1016.6mb - 72f
11:20am  -   -  13 18 mph 1016.8mb - 72f
11:10am  -   -  16 18 mph 1016.8mb - 72f
11:00am 1.3ft 2s 13 18 mph 1016.9mb 75f 72f
10:50am  -   -  13 18 mph 1016.7mb - 72f
10:40am  -   -  13 16 mph 1016.7mb - 72f
10:30am  -   -  13 18 mph 1016.9mb - 72f
10:20am  -   -  11 16 mph 1017mb - 72f
10:10am  -   -  11 13 mph 1016.9mb - 71f
10:00am 1ft 2s 11 13 mph 1016.9mb 75f 71f
9:50am  -   -  11 16 mph 1016.7mb - 71f
9:40am  -   -  11 13 mph 1016.8mb - 70f
9:30am  -   -  11 13 mph 1016.9mb - 70f
9:20am  -   -  9 13 mph 1016.8mb - 70f
9:10am  -   -  11 13 mph 1016.8mb - 70f
9:00am 1ft 2s 9 11 mph 1016.8mb 75f 70f
8:50am  -   -  9 13 mph 1016.8mb - 70f
8:40am  -   -  9 13 mph 1016.8mb - 69f
8:30am  -   -  9 11 mph 1016.8mb - 69f
8:20am  -   -  9 13 mph 1016.8mb - 69f
8:10am  -   -  11 13 mph 1016.9mb - 69f
8:00am 1ft 2s 11 13 mph 1016.7mb 75f 69f
7:50am  -   -  11 13 mph 1016.7mb - 69f
7:40am  -   -  9 11 mph 1016.7mb - 68f
7:30am  -   -  11 13 mph 1016.7mb - 68f
7:20am  -   -  11 13 mph 1016.7mb - 69f
7:10am  -   -  13 16 mph 1016.5mb - 69f
7:00am 1.3ft 2s 11 13 mph 1016.4mb 75f 68f
6:50am  -   -  13 18 mph 1016.4mb - 68f
6:40am  -   -  16 18 mph 1016.4mb - 69f
6:30am  -   -  16 18 mph 1016.3mb - 69f
6:20am  -   -  16 20 mph 1016.3mb - 69f
6:10am  -   -  16 18 mph 1016.3mb - 69f
6:00am 1.3ft 2s 16 18 mph 1016.2mb 75f 69f
5:50am  -   -  16 18 mph 1016.2mb - 69f
5:40am  -   -  13 16 mph 1016.3mb - 69f
5:30am  -   -  13 18 mph 1016.3mb - 69f
5:20am  -   -  16 18 mph 1016.3mb - 69f
5:10am  -   -  16 18 mph 1016.1mb - 69f
5:00am 1.3ft 3s 16 20 mph 1016mb 75f 69f
4:50am  -   -  16 20 mph 1015.9mb - 70f
4:40am  -   -  13 16 mph 1016mb - 69f
4:30am  -   -  13 16 mph 1015.9mb - 69f
4:10am  -   -  11 16 mph 1016.3mb - 69f
4:00am 1ft 2s 11 16 mph 1016.5mb 75f 69f
3:50am  -   -  11 16 mph 1016.5mb - 69f
3:40am  -   -  13 16 mph 1016.5mb - 69f
3:30am  -   -  13 16 mph 1016.6mb - 69f
3:20am  -   -  11 13 mph 1016.7mb - 69f
3:10am  -   -  11 16 mph 1017mb - 68f
3:00am 1.3ft 3s 11 13 mph 1017.2mb 75f 69f
2:50am  -   -  11 16 mph 1017.3mb - 69f
2:40am  -   -  11 16 mph 1017.4mb - 69f
2:30am  -   -  11 13 mph 1017.5mb - 69f
2:20am  -   -  11 13 mph 1017.6mb - 69f
2:10am  -   -  11 13 mph 1017.6mb - 69f
1:10am  -   -  16 18 mph 1017.3mb - 69f
1:00am 1ft 3s 16 20 mph 1017.4mb 75f 69f
12:50am  -   -  16 20 mph 1017.6mb - 69f
12:40am  -   -  16 20 mph 1017.8mb - 69f
12:30am  -   -  16 20 mph 1018mb - 69f
12:20am  -   -  16 18 mph 1018mb - 69f
12:10am  -   -  16 20 mph 1018.2mb - 69f
12:00am 1ft 3s 18 20 mph 1018.4mb 75f 69f
Mon 09/15 11:50pm  -   -  16 22 mph 1018.5mb - 69f
11:40pm  -   -  18 20 mph 1018.6mb - 70f
11:30pm  -   -  18 22 mph 1018.5mb - 70f
11:20pm  -   -  18 22 mph 1018.7mb - 70f
11:10pm  -   -  18 20 mph 1018.8mb - 70f
11:00pm 0.7ft  -  18 22 mph 1019.1mb 75f 70f
10:50pm  -   -  18 22 mph 1019.1mb - 71f
10:40pm  -   -  16 20 mph 1019.2mb - 71f
10:30pm  -   -  18 22 mph 1019mb - 71f
10:20pm  -   -  18 22 mph 1019.1mb - 71f
10:10pm  -   -  16 20 mph 1019.3mb - 71f
10:00pm 0.3ft  -  16 20 mph 1019.2mb 75f 71f
9:50pm  -   -  16 20 mph 1019.5mb - 71f
9:40pm  -   -  16 18 mph 1019.5mb - 71f
9:30pm  -   -  13 18 mph 1019.6mb - 71f
9:20pm  -   -  13 16 mph 1019.8mb - 70f
9:10pm  -   -  13 16 mph 1020mb - 70f
9:00pm 0.7ft  -  13 16 mph 1020.3mb 76f 71f
8:50pm  -   -  11 16 mph 1020.2mb - 71f
8:40pm  -   -  11 13 mph 1020.2mb - 70f
8:30pm  -   -  11 16 mph 1020.2mb - 70f
8:20pm  -   -  11 13 mph 1020.2mb - 70f
8:10pm  -   -  11 16 mph 1020.2mb - 70f
8:00pm 0.3ft  -  11 13 mph 1020.2mb 76f 71f
7:50pm  -   -  11 13 mph 1020mb - 70f
7:40pm  -   -  9 11 mph 1020mb - 70f
7:30pm  -   -  11 13 mph 1020mb - 70f
7:20pm  -   -  9 11 mph 1020.1mb - 70f
7:10pm  -   -  9 11 mph 1020.2mb - 70f
7:00pm 0.3ft  -  7 11 mph 1020.3mb 76f 71f
6:50pm  -   -  9 11 mph 1020.5mb - 71f
6:40pm  -   -  9 11 mph 1020.5mb - 71f
6:30pm  -   -  7 11 mph 1020.6mb - 71f
6:20pm  -   -  4 9 mph 1020.6mb - 71f
6:10pm  -   -  4 7 mph 1020.7mb - 70f
6:00pm 0.3ft  -  7 9 mph 1020.7mb 77f 70f
5:50pm  -   -  4 7 mph 1020.9mb - 70f
5:40pm  -   -  4 7 mph 1020.9mb - 70f
5:30pm  -   -  4 7 mph 1021mb - 70f
5:20pm  -   -  4 7 mph 1021.1mb - 70f
5:10pm  -   -   -  4 mph 1021.2mb - 70f
5:00pm 0.3ft  -   -  2 mph 1021.3mb 77f 71f
4:50pm  -   -  2 4 mph 1021.3mb - 70f
4:40pm  -   -   -  2 mph 1021.4mb - 71f
4:30pm  -   -   -  2 mph 1021.4mb - 70f
4:20pm  -   -  2 4 mph 1021.4mb - 70f
4:10pm  -   -  2 4 mph 1021.5mb - 70f
4:00pm 0.3ft  -  2 4 mph 1021.5mb 76f 69f
3:50pm  -   -  4 7 mph 1021.6mb - 69f
3:40pm  -   -  4 7 mph 1021.7mb - 69f
3:30pm  -   -  4 11 mph 1021.8mb - 69f
3:20pm  -   -  7 9 mph 1021.8mb - 69f
3:10pm  -   -  7 9 mph 1021.7mb - 69f
3:00pm 0.3ft  -  4 9 mph 1021.9mb 77f 68f
2:50pm  -   -  4 7 mph 1022mb - 68f
2:40pm  -   -  4 7 mph 1022.2mb - 68f
2:30pm  -   -  4 7 mph 1022.4mb - 68f
2:20pm  -   -  4 7 mph 1022.6mb - 68f
2:10pm  -   -  4 7 mph 1022.8mb - 68f
2:00pm 0.3ft  -  4 7 mph 1022.9mb 77f 68f
1:50pm  -   -  4 7 mph 1022.9mb - 68f
1:40pm  -   -  4 9 mph 1022.9mb - 67f
1:30pm  -   -  4 9 mph 1023.1mb - 67f
1:20pm  -   -  4 7 mph 1023.3mb - 67f
1:10pm  -   -  4 7 mph 1023.4mb - 67f
1:00pm 0.7ft  -  4 7 mph 1023.6mb 76f 67f
12:50pm  -   -  2 7 mph 1023.6mb - 67f
12:40pm  -   -  4 7 mph 1023.7mb - 67f
12:30pm  -   -  4 7 mph 1023.9mb - 67f
12:20pm  -   -  2 7 mph 1023.9mb - 67f
12:10pm  -   -  4 7 mph 1024.1mb - 66f
12:00pm 0.3ft  -  2 4 mph 1024.3mb 76f 67f
11:50am  -   -  2 7 mph 1024.3mb - 66f
11:40am  -   -  4 7 mph 1024.5mb - 66f
11:30am  -   -  4 7 mph 1024.6mb - 66f
11:20am  -   -  4 9 mph 1024.6mb - 66f
11:10am  -   -  4 9 mph 1024.6mb - 66f
11:00am 0.7ft  -  4 7 mph 1024.7mb 75f 66f
10:50am  -   -  4 7 mph 1024.8mb - 66f
10:40am  -   -  4 7 mph 1024.8mb - 66f
10:30am  -   -  4 7 mph 1024.8mb - 66f
10:20am  -   -  4 9 mph 1024.7mb - 66f
10:10am  -   -  7 9 mph 1024.7mb - 66f
10:00am 1ft 2s 7 9 mph 1024.7mb 75f 65f
9:10am  -   -  9 11 mph 1024.5mb - 64f
9:00am 1ft 2s 9 11 mph 1024.3mb 75f 64f
8:50am  -   -  11
mph
1024.4mb - 64f
8:40am  -   -  11 13 mph 1024.4mb - 64f
8:30am  -   -  9 13 mph 1024.6mb - 64f
8:20am  -   -  9 11 mph 1024.5mb - 63f
8:10am  -   -  11
mph
1024.4mb - 64f
8:00am 1ft 2s 11 13 mph 1024.5mb 75f 64f
7:50am  -   -  11 13 mph 1024.5mb - 64f
7:40am  -   -  9 11 mph 1024.4mb - 64f
7:30am  -   -  9 11 mph 1024.4mb - 64f
7:20am  -   -  9 13 mph 1024.2mb - 65f
7:10am  -   -  9 13 mph 1024.1mb - 65f
7:00am 0.3ft  -  7 9 mph 1024.1mb 75f 66f
6:50am  -   -  4 9 mph 1024mb - 66f
6:40am  -   -  7 9 mph 1023.9mb - 66f
6:30am  -   -  7 9 mph 1023.9mb - 66f
6:20am  -   -  7 9 mph 1023.8mb - 66f
6:10am  -   -  7 11 mph 1023.7mb - 66f
6:00am 0.3ft  -  7 9 mph 1023.7mb 75f 66f
5:50am  -   -  7 11 mph 1023.6mb - 66f
5:40am  -   -  9 11 mph 1023.6mb - 66f
5:30am  -   -  7 9 mph 1023.5mb - 67f
5:20am  -   -  7 9 mph 1023.5mb - 67f
5:10am  -   -  4 9 mph 1023.4mb - 67f
5:00am  -   -  4 9 mph 1023.3mb 75f 66f
4:50am  -   -  4 7 mph 1023.3mb - 66f
4:40am  -   -  4
mph
1023.3mb - 66f
4:30am  -   -  4 7 mph 1023.2mb - 66f
4:20am  -   -  4 7 mph 1023.2mb - 66f
4:10am  -   -  4 7 mph 1023.3mb - 66f
4:00am 0.3ft  -  4 7 mph 1023.3mb 75f 66f
3:50am  -   -  4 7 mph 1023.3mb - 66f
3:40am  -   -  7
mph
1023.3mb - 66f
3:30am  -   -  4 7 mph 1023.3mb - 66f
3:20am  -   -  4 7 mph 1023.3mb - 66f
3:10am  -   -  4 7 mph 1023.3mb - 66f
3:00am 0.3ft  -  7 9 mph 1023.3mb 75f 66f
2:50am  -   -  7 9 mph 1023.3mb - 66f
2:40am  -   -  4 7 mph 1023.4mb - 66f
2:30am  -   -  4 7 mph 1023.5mb - 66f
2:20am  -   -  4 7 mph 1023.5mb - 66f
2:10am  -   -  7
mph
1023.5mb - 66f
2:00am 0.3ft  -  7 9 mph 1023.4mb 75f 66f
1:50am  -   -  4 7 mph 1023.5mb - 66f
1:40am  -   -  7
mph
1023.5mb - 66f
1:30am  -   -  4 9 mph 1023.5mb - 67f
1:20am  -   -  4 7 mph 1023.5mb - 67f
1:10am  -   -  4 7 mph 1023.5mb - 67f
1:00am 0.7ft  -  4 7 mph 1023.5mb 75f 67f
12:50am  -   -  2 7 mph 1023.5mb - 67f
12:40am  -   -  2 4 mph 1023.5mb - 67f
12:30am  -   -  2 4 mph 1023.5mb - 67f
12:20am  -   -  4 7 mph 1023.6mb - 67f
12:10am  -   -  4 7 mph 1023.6mb - 67f
12:00am 0.3ft  -  4 7 mph 1023.7mb 75f 67f
Sun 09/14 11:50pm  -   -   -  2 mph 1023.8mb - 67f
11:40pm  -   -  2 4 mph 1023.8mb - 67f
11:30pm  -   -  2 4 mph 1023.8mb - 67f
11:20pm  -   -  2 4 mph 1023.8mb - 67f
11:10pm  -   -  2 4 mph 1023.9mb - 67f
11:00pm 0.3ft  -  2 7 mph 1023.8mb 75f 67f
10:50pm  -   -  2 7 mph 1023.8mb - 67f
10:40pm  -   -   -  4 mph 1023.8mb - 67f
10:30pm  -   -  2 4 mph 1023.7mb - 67f
10:20pm  -   -   -  4 mph 1023.7mb - 67f
10:10pm  -   -   -  mph 1023.7mb - 67f
10:00pm 0.3ft  -   -  2 mph 1023.8mb 76f 67f
9:50pm  -   -   -  2 mph 1023.8mb - 67f
9:40pm  -   -   -  2 mph 1023.9mb - 67f
9:30pm  -   -  2
mph
1023.9mb - 67f
9:20pm  -   -  2 4 mph 1023.8mb - 67f
9:10pm  -   -  2 4 mph 1023.8mb - 67f
9:00pm 0.3ft  -  2
mph
1023.8mb 76f 67f
8:50pm  -   -   -  4 mph 1023.9mb - 67f
8:40pm  -   -   -  2 mph 1024mb - 67f
8:30pm  -   -   -  mph 1023.8mb - 67f
8:20pm  -   -   -  2 mph 1023.7mb - 66f
8:10pm  -   -   -  2 mph 1023.7mb - 66f
8:00pm  -   -   -  mph 1023.7mb 76f 66f
7:50pm  -   -   -  4 mph 1023.5mb - 66f
7:40pm  -   -   -  mph 1023.4mb - 66f
7:30pm  -   -   -  mph 1023.4mb - 66f
7:20pm  -   -   -  2 mph 1023.5mb - 66f
7:10pm  -   -  2 4 mph 1023.5mb - 66f
7:00pm 0.3ft  -  2 4 mph 1023.5mb 76f 67f
6:50pm  -   -  2 4 mph 1023.5mb - 67f
6:40pm  -   -  2 4 mph 1023.6mb - 67f
6:30pm  -   -  2 4 mph 1023.5mb - 67f
6:20pm  -   -  2 7 mph 1023.6mb - 67f
6:10pm  -   -  4 7 mph 1023.6mb - 66f
6:00pm 0.3ft  -  2 4 mph 1023.6mb 76f 66f
5:50pm  -   -  4 7 mph 1023.6mb - 67f
5:40pm  -   -  4 7 mph 1023.6mb - 67f
5:30pm  -   -  4 7 mph 1023.8mb - 67f
5:20pm  -   -  2 4 mph 1023.8mb - 66f
5:10pm  -   -  4 7 mph 1023.9mb - 66f
5:00pm 0.3ft  -  2 4 mph 1024mb 76f 65f
4:50pm  -   -  4 7 mph 1024.1mb - 65f
4:40pm  -   -  4 7 mph 1024.1mb - 65f
4:30pm  -   -  4 7 mph 1024.2mb - 65f
4:20pm  -   -  4 7 mph 1024.2mb - 65f
4:10pm  -   -  4 9 mph 1024.3mb - 65f
4:00pm 0.7ft  -  7 9 mph 1024.3mb 76f 65f
3:50pm  -   -  4 9 mph 1024.4mb - 64f
3:40pm  -   -  4 9 mph 1024.5mb - 64f
3:30pm  -   -  4 9 mph 1024.6mb - 64f
3:20pm  -   -  4 9 mph 1024.7mb - 64f
3:10pm  -   -  4 9 mph 1024.8mb - 64f
3:00pm 0.7ft  -  4 7 mph 1025mb 76f 64f
2:50pm  -   -  7 11 mph 1025.1mb - 64f
2:40pm  -   -  7 11 mph 1025.1mb - 64f
2:30pm  -   -  9 11 mph 1025.2mb - 63f
2:20pm  -   -  7 11 mph 1025.4mb - 63f
2:10pm  -   -  4 7 mph 1025.6mb - 63f
2:00pm 1ft 2s 7 11 mph 1025.8mb 76f 63f
1:50pm  -   -  4 9 mph 1025.9mb - 63f
1:40pm  -   -  7 11 mph 1025.8mb - 63f
1:30pm  -   -  4 9 mph 1025.9mb - 63f
1:20pm  -   -  7 11 mph 1026mb - 63f
1:10pm  -   -  7 11 mph 1026.1mb - 63f
1:00pm 1ft 2s 9 11 mph 1026.1mb 76f 63f
12:50pm  -   -  7 11 mph 1026.2mb - 63f
12:40pm  -   -  9 13 mph 1026.1mb - 63f
12:30pm  -   -  9 11 mph 1026.1mb - 63f
12:20pm  -   -  9 13 mph 1026.2mb - 62f
12:10pm  -   -  9 13 mph 1026.3mb - 63f
12:00pm 1ft 2s 11 16 mph 1026.3mb 76f 62f
11:50am  -   -  9 13 mph 1026.4mb - 62f
11:40am  -   -  9 13 mph 1026.4mb - 62f
11:30am  -   -  9 13 mph 1026.4mb - 62f
11:20am  -   -  9 13 mph 1026.4mb - 62f
11:10am  -   -  9 13 mph 1026.5mb - 62f
11:00am 1.3ft 3s 9 13 mph 1026.6mb 76f 62f
10:50am  -   -  11 16 mph 1026.7mb - 62f
10:40am  -   -  11 16 mph 1026.7mb - 62f
10:30am  -   -  11 16 mph 1026.7mb - 63f
10:20am  -   -  13 16 mph 1026.7mb - 62f
10:10am  -   -  13 16 mph 1026.7mb - 62f
10:00am 1.6ft 3s 11 16 mph 1026.8mb 76f 62f
9:50am  -   -  11 13 mph 1026.8mb - 62f
9:40am  -   -  11 16 mph 1026.8mb - 62f
9:30am  -   -  11 16 mph 1026.8mb - 62f
9:20am  -   -  13 16 mph 1026.7mb - 62f
9:10am  -   -  13 16 mph 1026.7mb - 62f
9:00am 1.6ft 3s 13 18 mph 1026.6mb 76f 62f
8:50am  -   -  13 18 mph 1026.6mb - 62f
8:40am  -   -  13 16 mph 1026.6mb - 62f
8:30am  -   -  13 16 mph 1026.5mb - 63f
8:20am  -   -  13 18 mph 1026.5mb - 63f
8:10am  -   -  16 20 mph 1026.4mb - 63f
8:00am 1.6ft 3s 16 20 mph 1026.3mb 76f 63f
7:50am  -   -  16 20 mph 1026.1mb - 63f
7:40am  -   -  16 22 mph 1026mb - 63f
7:30am  -   -  16 22 mph 1025.9mb - 63f
7:20am  -   -  16 20 mph 1025.8mb - 63f
7:10am  -   -  18 22 mph 1025.7mb - 64f
7:00am 2ft 3s 18 22 mph 1025.5mb 76f 64f
6:50am  -   -  18 22 mph 1025.3mb - 64f
6:40am  -   -  18 25 mph 1025.2mb - 64f
6:30am  -   -  18 25 mph 1025mb - 64f
6:20am  -   -  20 25 mph 1024.8mb - 65f
6:10am  -   -  18 25 mph 1024.8mb - 65f
6:00am 2ft 3s 20 25 mph 1024.7mb 76f 65f
5:50am  -   -  20 25 mph 1024.6mb - 65f
5:40am  -   -  20 25 mph 1024.4mb - 65f
5:30am  -   -  20 25 mph 1024.3mb - 65f
5:20am  -   -  20 25 mph 1024.2mb - 65f
5:10am  -   -  20 22 mph 1024.1mb - 66f
5:00am 1.6ft 3s 20 25 mph 1024mb 76f 66f
4:50am  -   -  20 25 mph 1023.9mb - 66f
4:40am  -   -  20 25 mph 1024mb - 66f
4:30am  -   -  18 29 mph 1024mb - 66f
4:20am  -   -  20 25 mph 1023.9mb - 66f
4:10am  -   -  20 25 mph 1023.7mb - 66f
4:00am 2ft 3s 20 25 mph 1023.6mb 76f 66f
3:50am  -   -  20 22 mph 1023.6mb - 66f
3:40am  -   -  20 25 mph 1023.5mb - 67f
3:30am  -   -  20 27 mph 1023.4mb - 67f
3:20am  -   -  20 27 mph 1023.3mb - 67f
3:10am  -   -  20 27 mph 1023.3mb - 67f
3:00am 2.5ft 3s 20 27 mph 1023.3mb 76f 66f
2:50am  -   -  20 25 mph 1023.3mb - 67f
2:40am  -   -  22 27 mph 1023.3mb - 67f
2:30am  -   -  22 29 mph 1023.2mb - 67f
2:20am  -   -  25 29 mph 1023.1mb - 67f
2:10am  -   -  22 27 mph 1023.1mb - 67f
2:00am  -   -  22 27 mph 1023.1mb 76f 67f
1:50am  -   -  22 27 mph 1023.2mb - 67f
1:40am  -   -  22 25 mph 1023.2mb - 68f
1:30am  -   -  20 25 mph 1023.2mb - 68f
1:20am  -   -  20 27 mph 1023.3mb - 68f
1:10am  -   -  18 22 mph 1023.3mb - 67f
1:00am 1.6ft 3s 18 22 mph 1023.1mb 76f 67f
12:50am  -   -  16 20 mph 1023mb - 67f
12:40am  -   -  16 20 mph 1023mb - 67f
12:30am  -   -  16 20 mph 1022.9mb - 67f
12:20am  -   -  18 20 mph 1022.9mb - 68f
12:10am  -   -  18 20 mph 1022.9mb - 68f
12:00am 1.6ft 3s 18 20 mph 1022.9mb 76f 68f
Sat 09/13 11:50pm  -   -  16 20 mph 1023mb - 68f
11:40pm  -   -  18 20 mph 1023mb - 68f
11:30pm  -   -  16 20 mph 1023mb - 68f
11:20pm  -   -  16 20 mph 1023mb - 68f
11:10pm  -   -  16 20 mph 1022.9mb - 68f
11:00pm 2ft 3s 16 20 mph 1022.9mb 76f 68f
10:50pm  -   -  16 20 mph 1022.8mb - 68f
10:40pm  -   -  16 18 mph 1022.9mb - 68f
10:30pm  -   -  16 20 mph 1022.9mb - 69f
10:20pm  -   -  16 18 mph 1022.8mb - 69f
10:10pm  -   -  16 20 mph 1022.8mb - 69f
10:00pm 2ft 3s 16 18 mph 1022.8mb 76f 69f
9:50pm  -   -  13 18 mph 1022.7mb - 69f
9:40pm  -   -  16 18 mph 1022.7mb - 69f
9:30pm  -   -  16 20 mph 1022.7mb - 69f
9:20pm  -   -  16 20 mph 1022.6mb - 69f
9:10pm  -   -  16 22 mph 1022.4mb - 69f
9:00pm 2.5ft 3s 18 22 mph 1022.4mb 76f 69f
8:50pm  -   -  18 22 mph 1022.2mb - 69f
8:40pm  -   -  18 22 mph 1022.1mb - 69f
8:30pm  -   -  18 25 mph 1022mb - 69f
8:20pm  -   -  20 22 mph 1021.8mb - 69f
8:10pm  -   -  20 25 mph 1021.5mb - 69f
8:00pm 2.5ft 3s 20 27 mph 1021.3mb 76f 69f
7:50pm  -   -  20 27 mph 1021.1mb - 69f
7:40pm  -   -  22 27 mph 1021mb - 69f
7:30pm  -   -  20 25 mph 1020.8mb - 69f
7:20pm  -   -  20 25 mph 1020.6mb - 69f
7:10pm  -   -  20 25 mph 1020.5mb - 69f
7:00pm 2ft 3s 20 22 mph 1020.4mb 76f 69f
6:50pm  -   -  18 25 mph 1020.2mb - 69f
6:40pm  -   -  22 27 mph 1020.1mb - 69f
6:30pm  -   -  20 27 mph 1020mb - 69f
6:20pm  -   -  20 27 mph 1019.9mb - 69f
6:10pm  -   -  20 25 mph 1019.8mb - 69f
6:00pm 1.6ft 3s 20 25 mph 1019.7mb 76f 69f
5:50pm  -   -  20 25 mph 1019.7mb - 69f
5:40pm  -   -  20 25 mph 1019.7mb - 69f
5:30pm  -   -  20 25 mph 1019.4mb - 70f
5:20pm  -   -  18 22 mph 1019.5mb - 70f
5:10pm  -   -  16 20 mph 1019.4mb - 70f
5:00pm 1ft 2s 16 18 mph 1019.4mb 76f 70f
4:50pm  -   -  13 16 mph 1019.4mb - 70f
4:40pm  -   -  13
mph
1019.3mb - 70f
4:30pm  -   -  13 16 mph 1019.3mb - 70f
4:20pm  -   -  13 16 mph 1019.2mb - 69f
4:10pm  -   -  13 16 mph 1019.2mb - 69f
4:00pm 0.7ft  -  11 13 mph 1019.2mb 76f 69f
3:50pm  -   -  11 13 mph 1019.3mb - 69f
3:40pm  -   -  11 13 mph 1019.4mb - 70f
3:30pm  -   -  9 11 mph 1019.4mb - 69f
3:20pm  -   -  9 13 mph 1019.5mb - 69f
3:10pm  -   -  11 13 mph 1019.5mb - 69f
3:00pm 0.3ft  -  11 13 mph 1019.6mb 77f 69f
2:50pm  -   -  13 16 mph 1019.5mb - 69f
2:40pm  -   -  13 16 mph 1019.5mb - 69f
2:30pm  -   -  9 13 mph 1019.5mb - 70f
2:20pm  -   -  4 7 mph 1019.5mb - 71f
2:10pm  -   -  4 7 mph 1019.5mb - 71f
2:00pm 0.3ft  -  4 7 mph 1019.5mb 76f 71f
1:50pm  -   -  4
mph
1019.5mb - 71f
1:40pm  -   -  2 4 mph 1019.6mb - 72f
1:30pm  -   -  2 4 mph 1019.6mb - 72f
1:20pm  -   -  4 7 mph 1019.7mb - 71f
1:10pm  -   -  4 7 mph 1019.8mb - 71f
1:00pm 0.7ft  -  4 7 mph 1019.8mb 77f 71f
12:50pm  -   -  4 7 mph 1019.7mb - 71f
12:40pm  -   -  7 9 mph 1019.8mb - 71f
12:30pm  -   -  7 9 mph 1019.7mb - 71f
12:20pm  -   -  7 9 mph 1019.7mb - 71f
12:10pm  -   -  7 9 mph 1019.7mb - 71f
12:00pm 0.7ft  -  7 9 mph 1019.8mb 77f 71f
11:50am  -   -  4 7 mph 1019.9mb - 71f
11:40am  -   -  4 7 mph 1019.9mb - 70f
11:30am  -   -  4 7 mph 1019.9mb - 70f
11:20am  -   -  4 7 mph 1020mb - 70f
11:10am  -   -  4 9 mph 1020mb - 70f
11:00am 0.7ft  -  4 9 mph 1020.1mb 77f 70f
10:50am  -   -  4 9 mph 1020.1mb - 70f
10:40am  -   -  7 9 mph 1020.1mb - 70f
10:30am  -   -  4 9 mph 1020.1mb - 70f
10:20am  -   -  4 9 mph 1020mb - 70f
10:10am  -   -  7 9 mph 1019.8mb - 70f
10:00am 1ft 2s 4 7 mph 1019.9mb 76f 69f
9:50am  -   -  4 7 mph 1020mb - 69f
9:40am  -   -  4 7 mph 1019.9mb - 69f
9:30am  -   -  7 9 mph 1019.8mb - 69f
9:20am  -   -  9 11 mph 1019.6mb - 69f
9:10am  -   -  7 9 mph 1019.9mb - 69f
9:00am 1ft 2s 7 11 mph 1019.9mb 76f 69f
8:50am  -   -  7 9 mph 1020.1mb - 69f
8:40am  -   -  7 11 mph 1020.2mb - 69f
8:30am  -   -  7 9 mph 1020.1mb - 69f
8:20am  -   -  9
mph
1020.1mb - 69f
8:10am  -   -  9 11 mph 1020.2mb - 69f
8:00am 1ft 2s 7 11 mph 1020.2mb 76f 69f
7:50am  -   -  7 11 mph 1020.2mb - 69f
7:40am  -   -  7 9 mph 1020.1mb - 69f
7:30am  -   -  9 13 mph 1020mb - 69f
7:20am  -   -  9 11 mph 1020.2mb - 69f
7:10am  -   -  9
mph
1020.4mb - 69f
7:00am 1ft 2s 9 11 mph 1020.4mb 77f 69f
6:50am  -   -  9 11 mph 1020.1mb - 69f
6:40am  -   -  9 13 mph 1020.1mb - 69f
6:30am  -   -  9 13 mph 1020.1mb - 69f
6:20am  -   -  9 11 mph 1020.1mb - 69f
6:10am  -   -  11 13 mph 1020mb - 69f
6:00am 1ft 2s 11
mph
1020mb 77f 69f
5:50am  -   -  11
mph
1019.9mb - 69f
5:40am  -   -  11 13 mph 1020mb - 69f
5:30am  -   -  11
mph
1020mb - 69f
5:20am  -   -  9 11 mph 1019.9mb - 69f
5:10am  -   -  9 11 mph 1019.9mb - 69f
5:00am 1ft 2s 9 11 mph 1019.9mb 77f 69f
4:50am  -   -  9 11 mph 1019.9mb - 69f
4:40am  -   -  9 11 mph 1019.9mb - 69f
4:30am  -   -  9 11 mph 1019.9mb - 69f
4:20am  -   -  11 13 mph 1019.8mb - 69f
4:10am  -   -  9 13 mph 1019.9mb - 69f
4:00am 0.7ft  -  9 11 mph 1020mb 77f 69f
3:50am  -   -  9 11 mph 1020mb - 69f
3:40am  -   -  9 11 mph 1019.9mb - 69f
3:30am  -   -  9 11 mph 1019.9mb - 69f
3:20am  -   -  7 9 mph 1020mb - 70f
3:10am  -   -  4 9 mph 1020.1mb - 70f
3:00am 0.7ft  -  4 7 mph 1020.3mb 77f 70f
2:50am  -   -  4 7 mph 1020.3mb - 70f
2:40am  -   -  4 7 mph 1020.3mb - 70f
2:30am  -   -  4 7 mph 1020.4mb - 70f
2:20am  -   -  4 7 mph 1020.3mb - 70f
2:10am  -   -  7
mph
1020.3mb - 70f
2:00am 1ft 2s 4 7 mph 1020.3mb 77f 70f
1:50am  -   -  4 7 mph 1020.4mb - 70f
1:40am  -   -  4 7 mph 1020.5mb - 69f
1:30am  -   -  4 7 mph 1020.7mb - 69f
1:20am  -   -  7 9 mph 1020.8mb - 70f
1:10am  -   -  9 13 mph 1020.7mb - 70f
1:00am 1.3ft 2s 13 16 mph 1020.6mb 77f 70f
12:50am  -   -  11 13 mph 1020.6mb - 70f
12:40am  -   -  11 13 mph 1020.6mb - 70f
12:30am  -   -  11 16 mph 1020.6mb - 71f
12:20am  -   -  11 13 mph 1020.7mb - 71f
12:10am  -   -  11 13 mph 1020.7mb - 71f